Find Starlink 34132

NORAD ID: 64086 Int'l Des: 2025-107 Owner: SPXS Country: US Constellation: starlink operational
LEOCIRCULAR

Current View

Loading 3D Globe...

About Starlink 34132

Description loading...

Upcoming Passes

Passes for default location (London). Set your location on the main map for personalized predictions.

Altitude History

Loading altitude history...

Two-Line Element Set

1 64086U 25107Y 26149.34570661 .00024342 00000-0 89100-3 0 9999
2 64086 43.0001 106.2268 0001395 270.0154 90.0537 15.27586849 58424
Epoch: May 29, 2026 • Age: 24 hours

Current Status

Altitude 483.4 km
Velocity 7.63 km/s
Sub-Earth Point -5.02°S, 91.79°W
Launch Date May 21, 2025
Age 1 years
Type internet

Technical Details

Classification Payload
Mass 575.00 kg
Dry Mass 530.00 kg
Total Mass 575.00 kg
Length 0.30 m
Diameter 4.10 m
Span 29.00 m
Shape Box + pan
Manufacturer SPXS
Bus Type Starlink V2MO
Phase Status In Orbit
Owner/State SPXS/US

Most Searched